[ hide orbit diagram ]
For accurate long-term ephemerides, please instead use our Horizons system.This orbit viewer was implemented using two-body methods, and hence should not be used for determining accurate long-term trajectories (over several years or decades) or planetary encounter circumstances.
[ revert to old Java-based viewer ]
Orbital Elements at Epoch 2458600.5 (2019-Apr-27.0) TDB
Reference: JPL 13 (heliocentric ecliptic J2000)
Element | Value | Uncertainty (1-sigma) | Units |
e | .1228632843062089 | 1.057e-07 | |
a | 3.065612860087287 | 5.1312e-08 | au |
q | 2.688961595685612 | 3.1364e-07 | au |
i | 10.66500390582258 | 7.9053e-06 | deg |
node | 262.8495410664743 | 4.5728e-05 | deg |
peri | 102.6765925843056 | 5.6688e-05 | deg |
M | 120.0349472018117 | 3.2026e-05 | deg |
tp | 2457946.798328052571 (2017-Jul-12.29832805) | 0.00017421 | TDB |
period | 1960.534056014668 5.37 | 4.9223e-05 1.348e-07 | d yr |
n | .1836234361221964 | 4.6102e-09 | deg/d |
Q | 3.442264124488961 | 5.7616e-08 | au |
|
| | Orbit Determination Parameters
Additional Information
|
[ show covariance matrix ]
Physical Parameter Table
Parameter |
Symbol |
Value |
Units |
Sigma |
Reference |
Notes |
absolute magnitude |
H |
16.0 |
|
n/a |
MPO288361 |
|
|
382302 (2012 VZ112) Discovered 2006-Sep-16 by CSS at Catalina |
Reference: | Last Updated: 2013-12-19 |
|
[ show close-approach data ]
|